Find WINDOW CLEANER BUNDLE

NORAD ID: 69237 Int'l Des: 1998-067YF Country: Russia operational
LEOCIRCULAR

Aktuelle Ansicht

3D-Globus wird geladen...

Über WINDOW CLEANER BUNDLE

Beschreibung wird geladen...

Nächste Überflüge

Passes for default location (London). Set your location on the main map for personalized predictions.

Höhenverlauf

Loading altitude history...

Zweizeiliger Elementsatz

1 69237U 98067YF 26149.22615189 .00147409 00000-0 24334-2 0 9996
2 69237 51.6250 33.9602 0004258 55.8774 304.2619 15.51233711 370
Epoch: 29. Mai 2026 • Age: 22 hours

Aktueller Status

Höhe 411.3 km
Geschwindigkeit 7.67 km/s
Subsatellitenpunkt 1.51°N, 96.82°E
Typ other

Most Searched